Terminal Aerodrome Forecast
Issued by NWS Flagstaff, AZ

Home | Current Version | Previous Version | Text Only | Print | Product List | Glossary On
Versions: 1 2 3 4 5 6 7 8 9 10 11 12 13 14 15 16 17 18 19 20 21 22 23 24 25 26 27 28 29 30
000
FTUS45 KFGZ 230000 AAA
TAFINW
TAF AMD
KINW 230026Z 2300/2324 29011KT P6SM FEW080
     FM231800 02014G21KT P6SM SKC=

USA.gov is the U.S. government's official web portal to all federal, state and local government web resources and services.